Location: Hackberry
(29.5783°N, 96.8797°W)
Time: 19:21:17
(UTC+00:00)

Courier 1B Rocket - All Passes

Search period start: 13 November 2024 00:00
Search period end: 23 November 2024 00:00
Orbit: 920 x 1201 km, 28.2° (Epoch: 12 November)

Date Brightness Start Highest point End Pass type
(mag) Time Alt. Az. Time Alt. Az. Time Alt. Az.
13 Nov - 00:49:24 10° W 00:55:47 78° S 01:02:01 10° E visible
13 Nov - 02:43:02 10° W 02:48:59 47° SSW 02:54:59 10° SE visible
13 Nov - 04:37:49 10° WSW 04:41:52 18° SSW 04:46:00 10° SSE night (unlit)
13 Nov - 20:02:03 10° SSW 20:08:03 30° SSE 20:13:42 10° E daylight
13 Nov - 21:54:30 10° WSW 22:01:14 62° SSE 22:07:33 10° E daylight
13 Nov - 23:48:05 10° W 23:54:38 81° S 00:00:54 10° E visible
14 Nov - 01:41:44 10° W 01:47:56 59° SSW 01:54:03 10° ESE visible
14 Nov - 03:35:53 10° W 03:40:54 25° SSW 03:45:57 10° SSE visible
14 Nov - 19:01:34 10° SSW 19:06:55 22° SSE 19:12:00 10° ESE daylight
14 Nov - 20:53:16 10° WSW 21:00:04 51° SSE 21:06:25 10° E daylight
14 Nov - 22:46:42 10° W 22:53:26 79° S 22:59:48 10° E daylight
15 Nov - 00:40:25 10° W 00:46:51 70° S 00:53:03 10° ESE visible
15 Nov - 02:34:17 10° W 02:39:55 35° SSW 02:45:30 10° SE visible
15 Nov - 04:31:13 10° SW 04:32:42 11° SSW 04:34:10 10° SSW night (unlit)
15 Nov - 18:01:41 10° S 18:05:44 15° SSE 18:09:41 10° ESE daylight
15 Nov - 19:52:11 10° SW 19:58:53 41° SSE 20:05:10 10° E daylight
15 Nov - 21:45:17 10° WSW 21:52:14 73° S 21:58:42 10° E daylight
15 Nov - 23:39:03 10° W 23:45:42 78° S 23:51:59 10° E daylight
16 Nov - 01:32:51 10° W 01:38:54 46° SSW 01:44:50 10° SE visible
16 Nov - 03:27:51 10° WSW 03:31:44 17° SSW 03:35:37 10° S visible
16 Nov - 18:51:18 10° SW 18:57:42 31° SSE 19:03:44 10° E daylight
16 Nov - 20:43:54 10° WSW 20:51:00 64° SSE 20:57:35 10° E daylight
16 Nov - 22:37:37 10° W 22:44:29 81° S 22:50:55 10° E daylight
17 Nov - 00:31:26 10° W 00:37:51 59° SSW 00:43:59 10° ESE visible
17 Nov - 02:25:46 10° W 02:30:47 25° SSW 02:35:44 10° SSE visible
17 Nov - 17:50:44 10° SSW 17:56:29 23° SSE 18:02:00 10° ESE daylight
17 Nov - 19:42:36 10° WSW 19:49:45 53° SSE 19:56:25 10° E daylight
17 Nov - 21:36:08 10° W 21:43:14 80° S 21:49:49 10° E daylight
17 Nov - 23:30:01 10° W 23:36:43 70° S 23:43:02 10° ESE daylight
18 Nov - 01:24:03 10° W 01:29:49 35° SSW 01:35:24 10° SE visible
18 Nov - 03:21:37 10° SW 03:22:32 10° SSW 03:23:27 10° SSW visible
18 Nov - 16:50:44 10° S 16:55:17 17° SSE 16:59:42 10° ESE daylight
18 Nov - 18:41:26 10° SW 18:48:29 43° SSE 18:55:07 10° E daylight
18 Nov - 20:34:39 10° WSW 20:41:57 74° S 20:48:43 10° E daylight
18 Nov - 22:28:33 10° W 22:35:31 78° S 22:42:01 10° E daylight
19 Nov - 00:22:30 10° W 00:28:48 46° SSW 00:34:47 10° SE visible
19 Nov - 02:17:42 10° WSW 02:21:35 17° SSW 02:25:26 10° S visible
19 Nov - 15:52:26 10° SSE 15:54:04 11° SSE 15:55:41 10° SE daylight
19 Nov - 17:40:31 10° SW 17:47:14 33° SSE 17:53:38 10° E daylight
19 Nov - 19:33:12 10° WSW 19:40:38 65° SSE 19:47:33 10° E daylight
19 Nov - 21:27:01 10° W 21:34:14 81° S 21:40:56 10° E daylight
19 Nov - 23:20:59 10° W 23:27:42 59° SSW 23:34:00 10° ESE daylight
20 Nov - 01:15:28 10° W 01:20:39 25° SSW 01:25:39 10° SSE visible
20 Nov - 16:39:56 10° SSW 16:45:59 25° SSE 16:51:50 10° E daylight
20 Nov - 18:31:52 10° WSW 18:39:18 55° SSE 18:46:19 10° E daylight
20 Nov - 20:25:28 10° W 20:32:55 80° S 20:39:48 10° E daylight
20 Nov - 22:19:27 10° W 22:26:31 70° S 22:33:03 10° ESE daylight
21 Nov - 00:13:39 10° W 00:19:40 35° SSW 00:25:22 10° SE visible
21 Nov - 02:11:27 10° SW 02:12:22 10° SSW 02:13:17 10° SSW visible
21 Nov - 15:39:56 10° S 15:44:45 18° SSE 15:49:30 10° ESE daylight
21 Nov - 17:30:42 10° SW 17:37:59 44° SSE 17:44:57 10° E daylight
21 Nov - 19:23:57 10° WSW 19:31:32 75° S 19:38:39 10° E daylight
21 Nov - 21:17:55 10° W 21:25:14 78° S 21:32:01 10° E daylight
21 Nov - 23:11:59 10° W 23:18:36 47° SSW 23:24:47 10° SE daylight
22 Nov - 01:07:20 10° WSW 01:11:25 17° SSW 01:15:23 10° S visible
22 Nov - 14:41:23 10° SSE 14:43:31 11° SSE 14:45:40 10° SE daylight
22 Nov - 16:29:47 10° SW 16:36:40 34° SSE 16:43:23 10° E daylight
22 Nov - 18:22:28 10° WSW 18:30:09 67° SSE 18:37:24 10° E daylight
22 Nov - 20:16:20 10° W 20:23:52 82° S 20:30:53 10° E daylight
22 Nov - 22:10:23 10° W 22:17:26 60° SSW 22:23:59 10° ESE daylight
